Time,TemperatureF,DewpointF,PressureIn,WindDirection,WindDirectionDegrees,WindSpeedMPH,WindSpeedGustMPH,Humidity,HourlyPrecipIn,Conditions,Clouds,dailyrainin,SoftwareType,DateUTC
2013-04-13 00:01:00,51.4,44.8,29.86,ESE,116,0.0,2.0,78,0.00,,---,0.00,VWS V14.01,2013-04-13 07:01:00,
2013-04-13 00:06:00,51.2,44.6,29.86,ESE,106,0.0,3.0,78,0.00,,---,0.00,VWS V14.01,2013-04-13 07:06:00,
2013-04-13 00:11:00,51.0,44.4,29.86,ESE,106,0.0,3.0,78,0.00,,---,0.00,VWS V14.01,2013-04-13 07:11:00,
2013-04-13 00:16:00,50.8,44.5,29.86,ESE,121,0.0,4.0,79,0.00,,---,0.00,VWS V14.01,2013-04-13 07:16:00,
2013-04-13 00:21:00,50.7,44.8,29.87,ESE,120,1.0,7.0,80,0.00,,---,0.00,VWS V14.01,2013-04-13 07:21:00,
2013-04-13 00:26:00,50.9,44.6,29.87,ESE,119,2.0,6.0,79,0.00,,---,0.00,VWS V14.01,2013-04-13 07:26:00,
2013-04-13 00:32:00,50.9,44.6,29.86,ESE,115,6.0,6.0,79,0.00,,---,0.00,VWS V14.01,2013-04-13 07:32:00,
2013-04-13 00:37:00,51.0,44.7,29.86,ESE,107,0.0,6.0,79,0.00,,---,0.00,VWS V14.01,2013-04-13 07:37:00,
2013-04-13 00:42:00,50.9,44.6,29.86,ESE,105,3.0,3.0,79,0.00,,---,0.00,VWS V14.01,2013-04-13 07:42:00,
2013-04-13 00:47:00,50.7,44.8,29.86,ESE,104,0.0,6.0,80,0.00,,---,0.00,VWS V14.01,2013-04-13 07:47:00,
2013-04-13 00:52:00,50.5,44.9,29.86,East,100,6.0,6.0,81,0.00,,---,0.00,VWS V14.01,2013-04-13 07:52:00,
2013-04-13 00:57:00,50.4,44.8,29.86,ENE,69,2.0,6.0,81,0.00,,---,0.00,VWS V14.01,2013-04-13 07:57:00,
2013-04-13 01:02:00,50.3,44.7,29.86,SE,127,0.0,1.0,81,0.00,,---,0.00,VWS V14.01,2013-04-13 08:02:00,
2013-04-13 01:07:00,50.2,44.9,29.86,ESE,102,0.0,3.0,82,0.00,,---,0.00,VWS V14.01,2013-04-13 08:07:00,
2013-04-13 01:12:00,50.1,44.5,29.86,ESE,102,0.0,0.0,81,0.00,,---,0.00,VWS V14.01,2013-04-13 08:12:00,
2013-04-13 01:17:00,50.0,44.7,29.86,ESE,117,0.0,1.0,82,0.00,,---,0.00,VWS V14.01,2013-04-13 08:17:00,
2013-04-13 01:22:00,49.9,44.6,29.85,SE,135,4.0,6.0,82,0.00,,---,0.00,VWS V14.01,2013-04-13 08:22:00,
2013-04-13 01:27:00,50.0,44.7,29.86,ESE,123,0.0,6.0,82,0.00,,---,0.00,VWS V14.01,2013-04-13 08:27:00,
2013-04-13 01:32:00,49.9,44.6,29.86,ESE,112,1.0,1.0,82,0.00,,---,0.00,VWS V14.01,2013-04-13 08:32:00,
2013-04-13 01:38:00,49.7,44.4,29.86,SE,135,0.0,2.0,82,0.00,,---,0.00,VWS V14.01,2013-04-13 08:38:00,
2013-04-13 01:43:00,49.5,44.2,29.86,ESE,121,2.0,3.0,82,0.00,,---,0.00,VWS V14.01,2013-04-13 08:43:00,
2013-04-13 01:48:00,49.3,44.4,29.86,ESE,107,0.0,4.0,83,0.00,,---,0.00,VWS V14.01,2013-04-13 08:48:00,
2013-04-13 01:53:00,49.2,44.3,29.86,SE,140,0.0,4.0,83,0.00,,---,0.00,VWS V14.01,2013-04-13 08:53:00,
2013-04-13 01:58:00,49.2,44.3,29.86,SE,128,0.0,6.0,83,0.00,,---,0.00,VWS V14.01,2013-04-13 08:58:00,
2013-04-13 02:03:00,49.2,44.3,29.85,SE,124,0.0,0.0,83,0.00,,---,0.00,VWS V14.01,2013-04-13 09:03:00,
2013-04-13 02:08:00,49.3,44.0,29.85,ESE,118,0.0,6.0,82,0.00,,---,0.00,VWS V14.01,2013-04-13 09:08:00,
2013-04-13 02:13:00,49.5,44.2,29.85,East,87,0.0,3.0,82,0.00,,---,0.00,VWS V14.01,2013-04-13 09:13:00,
2013-04-13 02:19:00,49.7,44.1,29.85,ESE,112,6.0,6.0,81,0.00,,---,0.00,VWS V14.01,2013-04-13 09:19:00,
2013-04-13 02:24:00,49.8,43.9,29.85,ESE,121,4.0,5.0,80,0.00,,---,0.00,VWS V14.01,2013-04-13 09:24:00,
2013-04-13 02:29:00,50.0,43.8,29.84,SE,132,2.0,7.0,79,0.00,,---,0.00,VWS V14.01,2013-04-13 09:29:00,
2013-04-13 02:34:00,50.1,43.8,29.84,East,90,3.0,6.0,79,0.00,,---,0.00,VWS V14.01,2013-04-13 09:34:00,
2013-04-13 02:39:00,50.1,43.8,29.84,ESE,117,1.0,6.0,79,0.00,,---,0.00,VWS V14.01,2013-04-13 09:39:00,
2013-04-13 02:44:00,50.1,43.8,29.83,ESE,112,1.0,6.0,79,0.00,,---,0.00,VWS V14.01,2013-04-13 09:44:00,
2013-04-13 02:49:00,50.1,43.8,29.83,ESE,109,5.0,10.0,79,0.00,,---,0.00,VWS V14.01,2013-04-13 09:49:00,
2013-04-13 02:55:00,50.2,43.6,29.83,ESE,116,6.0,10.0,78,0.00,,---,0.00,VWS V14.01,2013-04-13 09:55:00,
2013-04-13 03:00:00,50.3,43.7,29.83,ESE,119,6.0,10.0,78,0.00,,---,0.00,VWS V14.01,2013-04-13 10:00:00,
2013-04-13 03:05:00,50.3,43.7,29.84,SE,131,0.0,4.0,78,0.00,,---,0.00,VWS V14.01,2013-04-13 10:05:00,
2013-04-13 03:10:00,50.3,43.7,29.84,SE,131,1.0,4.0,78,0.00,,---,0.00,VWS V14.01,2013-04-13 10:10:00,
2013-04-13 03:15:00,50.1,43.5,29.83,SE,130,0.0,1.0,78,0.00,,---,0.00,VWS V14.01,2013-04-13 10:15:00,
2013-04-13 03:20:00,49.9,43.7,29.84,SE,128,0.0,1.0,79,0.00,,---,0.00,VWS V14.01,2013-04-13 10:20:00,
2013-04-13 03:25:00,49.6,43.4,29.83,SE,128,0.0,3.0,79,0.00,,---,0.00,VWS V14.01,2013-04-13 10:25:00,
2013-04-13 03:30:00,49.7,43.1,29.83,SE,132,0.0,3.0,78,0.00,,---,0.00,VWS V14.01,2013-04-13 10:30:00,
2013-04-13 03:35:00,50.0,43.1,29.83,ESE,118,3.0,7.0,77,0.00,,---,0.00,VWS V14.01,2013-04-13 10:35:00,
2013-04-13 03:40:00,50.1,43.2,29.83,ESE,113,0.0,8.0,77,0.00,,---,0.00,VWS V14.01,2013-04-13 10:40:00,
2013-04-13 03:45:00,50.3,43.4,29.83,SE,126,4.0,11.0,77,0.00,,---,0.00,VWS V14.01,2013-04-13 10:45:00,
2013-04-13 03:50:00,50.3,43.4,29.83,SE,124,5.0,11.0,77,0.00,,---,0.00,VWS V14.01,2013-04-13 10:50:00,
2013-04-13 03:55:00,50.1,43.2,29.83,East,80,0.0,5.0,77,0.00,,---,0.00,VWS V14.01,2013-04-13 10:55:00,
2013-04-13 04:00:00,50.0,43.1,29.83,East,94,0.0,5.0,77,0.00,,---,0.00,VWS V14.01,2013-04-13 11:00:00,
2013-04-13 04:05:00,49.9,43.0,29.83,SE,139,4.0,5.0,77,0.00,,---,0.00,VWS V14.01,2013-04-13 11:05:00,
2013-04-13 04:10:00,49.7,43.1,29.83,SE,136,5.0,9.0,78,0.00,,---,0.00,VWS V14.01,2013-04-13 11:10:00,
2013-04-13 04:15:00,49.6,43.4,29.83,SE,130,4.0,9.0,79,0.00,,---,0.00,VWS V14.01,2013-04-13 11:15:00,
2013-04-13 04:20:00,49.5,43.3,29.83,SE,127,1.0,9.0,79,0.00,,---,0.00,VWS V14.01,2013-04-13 11:20:00,
2013-04-13 04:25:00,49.5,42.9,29.83,ESE,123,5.0,6.0,78,0.00,,---,0.00,VWS V14.01,2013-04-13 11:25:00,
2013-04-13 04:30:00,49.6,43.0,29.83,ESE,119,6.0,9.0,78,0.00,,---,0.00,VWS V14.01,2013-04-13 11:30:00,
2013-04-13 04:35:00,49.7,43.5,29.83,ESE,123,5.0,11.0,79,0.00,,---,0.00,VWS V14.01,2013-04-13 11:35:00,
2013-04-13 04:40:00,49.5,43.6,29.83,SE,130,5.0,12.0,80,0.00,,---,0.00,VWS V14.01,2013-04-13 11:40:00,
2013-04-13 04:45:00,49.3,44.0,29.83,ESE,116,4.0,11.0,82,0.00,,---,0.00,VWS V14.01,2013-04-13 11:45:00,
2013-04-13 04:50:00,49.2,44.0,29.83,ESE,118,4.0,11.0,82,0.00,,---,0.00,VWS V14.01,2013-04-13 11:50:00,
2013-04-13 04:55:00,49.1,43.8,29.83,SE,129,0.0,6.0,82,0.00,,---,0.00,VWS V14.01,2013-04-13 11:55:00,
2013-04-13 05:01:00,49.0,44.1,29.83,SE,125,0.0,6.0,83,0.00,,---,0.00,VWS V14.01,2013-04-13 12:01:00,
2013-04-13 05:06:00,49.0,43.8,29.83,SE,126,0.0,4.0,82,0.00,,---,0.00,VWS V14.01,2013-04-13 12:06:00,
2013-04-13 05:11:00,49.0,43.8,29.83,SE,129,0.0,5.0,82,0.00,,---,0.00,VWS V14.01,2013-04-13 12:11:00,
2013-04-13 05:16:00,49.1,43.8,29.83,ESE,121,0.0,0.0,82,0.00,,---,0.00,VWS V14.01,2013-04-13 12:16:00,
2013-04-13 05:21:00,49.0,43.4,29.83,ESE,105,0.0,1.0,81,0.00,,---,0.00,VWS V14.01,2013-04-13 12:21:00,
2013-04-13 05:26:00,49.0,43.4,29.83,ESE,105,0.0,0.0,81,0.00,,---,0.00,VWS V14.01,2013-04-13 12:26:00,
2013-04-13 05:31:00,49.0,43.4,29.83,ESE,105,0.0,0.0,81,0.00,,---,0.00,VWS V14.01,2013-04-13 12:31:00,
2013-04-13 05:36:00,49.0,43.4,29.83,ESE,105,0.0,0.0,81,0.00,,---,0.00,VWS V14.01,2013-04-13 12:36:00,
2013-04-13 05:41:00,49.0,43.4,29.83,ESE,105,0.0,0.0,81,0.00,,---,0.00,VWS V14.01,2013-04-13 12:41:00,
2013-04-13 05:47:00,49.0,43.4,29.83,ESE,105,0.0,0.0,81,0.00,,---,0.00,VWS V14.01,2013-04-13 12:47:00,
2013-04-13 05:52:00,49.0,43.4,29.83,ESE,105,0.0,0.0,81,0.00,,---,0.00,VWS V14.01,2013-04-13 12:52:00,
2013-04-13 05:57:00,49.0,43.4,29.83,ESE,105,0.0,0.0,81,0.00,,---,0.00,VWS V14.01,2013-04-13 12:57:00,
2013-04-13 06:02:00,49.0,43.4,29.83,ESE,105,0.0,0.0,81,0.00,,---,0.00,VWS V14.01,2013-04-13 13:02:00,
2013-04-13 06:07:00,49.0,43.4,29.84,ESE,105,0.0,0.0,81,0.00,,---,0.00,VWS V14.01,2013-04-13 13:07:00,
2013-04-13 06:12:00,49.0,43.4,29.84,ESE,105,0.0,0.0,81,0.00,,---,0.00,VWS V14.01,2013-04-13 13:12:00,
2013-04-13 06:17:00,49.0,43.4,29.84,ESE,105,0.0,0.0,81,0.00,,---,0.00,VWS V14.01,2013-04-13 13:17:00,
2013-04-13 06:22:00,49.0,43.4,29.84,ESE,105,0.0,0.0,81,0.00,,---,0.00,VWS V14.01,2013-04-13 13:22:00,
2013-04-13 06:28:00,49.0,43.4,29.84,ESE,105,0.0,0.0,81,0.00,,---,0.00,VWS V14.01,2013-04-13 13:28:00,
2013-04-13 06:33:00,49.0,43.4,29.84,ESE,105,0.0,0.0,81,0.00,,---,0.00,VWS V14.01,2013-04-13 13:33:00,
2013-04-13 06:38:00,49.0,43.4,29.84,ESE,105,0.0,0.0,81,0.00,,---,0.00,VWS V14.01,2013-04-13 13:38:00,
2013-04-13 06:43:00,49.0,43.4,29.85,ESE,105,0.0,0.0,81,0.00,,---,0.00,VWS V14.01,2013-04-13 13:43:00,
2013-04-13 06:48:00,49.0,43.4,29.85,ESE,105,0.0,0.0,81,0.00,,---,0.00,VWS V14.01,2013-04-13 13:48:00,
2013-04-13 06:53:00,49.0,43.4,29.84,ESE,105,0.0,0.0,81,0.00,,---,0.00,VWS V14.01,2013-04-13 13:53:00,
2013-04-13 06:58:00,49.0,43.4,29.84,ESE,105,0.0,0.0,81,0.00,,---,0.00,VWS V14.01,2013-04-13 13:58:00,
2013-04-13 07:03:00,49.0,43.4,29.84,ESE,105,0.0,0.0,81,0.00,,---,0.00,VWS V14.01,2013-04-13 14:03:00,
2013-04-13 07:08:00,49.0,43.4,29.84,ESE,105,0.0,0.0,81,0.00,,---,0.00,VWS V14.01,2013-04-13 14:08:00,
2013-04-13 07:13:00,46.9,43.2,29.85,ESE,106,0.0,0.0,87,0.00,,---,0.00,VWS V14.01,2013-04-13 14:13:00,
2013-04-13 07:18:00,47.5,43.2,29.86,WNW,302,0.0,3.0,85,0.00,,---,0.00,VWS V14.01,2013-04-13 14:18:00,
2013-04-13 07:23:00,47.6,43.3,29.86,WNW,302,0.0,1.0,85,0.00,,---,0.00,VWS V14.01,2013-04-13 14:23:00,
2013-04-13 07:28:00,47.5,43.2,29.86,WNW,302,0.0,1.0,85,0.00,,---,0.00,VWS V14.01,2013-04-13 14:28:00,
2013-04-13 07:33:00,47.7,43.7,29.87,WNW,302,0.0,0.0,86,0.00,,---,0.00,VWS V14.01,2013-04-13 14:33:00,
2013-04-13 07:39:00,48.0,44.0,29.87,WNW,302,0.0,1.0,86,0.00,,---,0.00,VWS V14.01,2013-04-13 14:39:00,
2013-04-13 07:44:00,48.4,44.1,29.87,WNW,302,0.0,0.0,85,0.00,,---,0.00,VWS V14.01,2013-04-13 14:44:00,
2013-04-13 07:49:00,48.8,44.8,29.86,WNW,302,0.0,0.0,86,0.00,,---,0.00,VWS V14.01,2013-04-13 14:49:00,
2013-04-13 07:54:00,49.8,45.5,29.87,WNW,302,0.0,0.0,85,0.00,,---,0.00,VWS V14.01,2013-04-13 14:54:00,
2013-04-13 07:59:00,51.3,46.0,29.87,ENE,78,1.0,2.0,82,0.00,,---,0.00,VWS V14.01,2013-04-13 14:59:00,
2013-04-13 08:04:00,52.3,46.0,29.87,East,91,0.0,2.0,79,0.00,,---,0.00,VWS V14.01,2013-04-13 15:04:00,
2013-04-13 08:09:00,53.2,46.2,29.87,ENE,57,2.0,2.0,77,0.00,,---,0.00,VWS V14.01,2013-04-13 15:09:00,
2013-04-13 08:14:00,53.9,45.8,29.87,ENE,59,0.0,3.0,74,0.00,,---,0.00,VWS V14.01,2013-04-13 15:14:00,
2013-04-13 08:19:00,54.3,45.8,29.87,East,96,0.0,3.0,73,0.00,,---,0.00,VWS V14.01,2013-04-13 15:19:00,
2013-04-13 08:24:00,54.6,46.1,29.87,NNE,26,0.0,0.0,73,0.00,,---,0.00,VWS V14.01,2013-04-13 15:24:00,
2013-04-13 08:29:00,55.0,45.8,29.87,ENE,69,0.0,1.0,71,0.00,,---,0.00,VWS V14.01,2013-04-13 15:29:00,
2013-04-13 08:34:00,55.5,45.9,29.88,East,85,0.0,1.0,70,0.00,,---,0.00,VWS V14.01,2013-04-13 15:34:00,
2013-04-13 08:39:00,55.9,46.3,29.88,ENE,74,1.0,2.0,70,0.00,,---,0.00,VWS V14.01,2013-04-13 15:39:00,
2013-04-13 08:45:00,56.4,46.0,29.88,NE,56,0.0,2.0,68,0.00,,---,0.00,VWS V14.01,2013-04-13 15:45:00,
2013-04-13 08:50:00,56.9,46.5,29.88,East,80,1.0,2.0,68,0.00,,---,0.00,VWS V14.01,2013-04-13 15:50:00,
2013-04-13 08:55:00,57.5,46.2,29.88,ESE,109,0.0,3.0,66,0.00,,---,0.00,VWS V14.01,2013-04-13 15:55:00,
2013-04-13 09:00:00,57.9,46.2,29.88,East,95,0.0,3.0,65,0.00,,---,0.00,VWS V14.01,2013-04-13 16:00:00,
2013-04-13 09:05:00,58.2,46.5,29.88,East,95,1.0,1.0,65,0.00,,---,0.00,VWS V14.01,2013-04-13 16:05:00,
2013-04-13 09:10:00,58.5,46.4,29.88,NE,53,0.0,4.0,64,0.00,,---,0.00,VWS V14.01,2013-04-13 16:10:00,
2013-04-13 09:15:00,58.7,46.6,29.89,East,91,0.0,2.0,64,0.00,,---,0.00,VWS V14.01,2013-04-13 16:15:00,
2013-04-13 09:20:00,59.0,46.8,29.89,ESE,115,0.0,2.0,64,0.00,,---,0.00,VWS V14.01,2013-04-13 16:20:00,
2013-04-13 09:25:00,59.0,46.4,29.88,East,86,1.0,3.0,63,0.00,,---,0.00,VWS V14.01,2013-04-13 16:25:00,
2013-04-13 09:30:00,59.0,46.0,29.89,ESE,117,0.0,3.0,62,0.00,,---,0.00,VWS V14.01,2013-04-13 16:30:00,
2013-04-13 09:36:00,59.1,46.1,29.88,East,98,1.0,3.0,62,0.00,,---,0.00,VWS V14.01,2013-04-13 16:36:00,
2013-04-13 09:41:00,59.8,46.8,29.88,ESE,103,0.0,3.0,62,0.00,,---,0.00,VWS V14.01,2013-04-13 16:41:00,
2013-04-13 09:47:00,60.3,46.8,29.87,East,96,0.0,3.0,61,0.00,,---,0.00,VWS V14.01,2013-04-13 16:47:00,
2013-04-13 09:51:00,60.6,46.7,29.87,NE,54,0.0,1.0,60,0.00,,---,0.00,VWS V14.01,2013-04-13 16:51:00,
2013-04-13 09:57:00,60.9,46.9,29.87,East,87,3.0,4.0,60,0.00,,---,0.00,VWS V14.01,2013-04-13 16:57:00,
2013-04-13 10:02:00,61.4,47.0,29.87,East,84,2.0,2.0,59,0.00,,---,0.00,VWS V14.01,2013-04-13 17:02:00,
2013-04-13 10:07:00,61.8,47.3,29.87,East,101,0.0,4.0,59,0.00,,---,0.00,VWS V14.01,2013-04-13 17:07:00,
2013-04-13 10:13:00,62.4,47.9,29.87,ENE,59,1.0,2.0,59,0.00,,---,0.00,VWS V14.01,2013-04-13 17:13:00,
2013-04-13 10:18:00,62.8,47.8,29.87,East,98,4.0,5.0,58,0.00,,---,0.00,VWS V14.01,2013-04-13 17:18:00,
2013-04-13 10:23:00,63.1,48.6,29.87,ENE,59,1.0,2.0,59,0.00,,---,0.00,VWS V14.01,2013-04-13 17:23:00,
2013-04-13 10:28:00,63.6,48.6,29.88,ESE,115,0.0,3.0,58,0.00,,---,0.00,VWS V14.01,2013-04-13 17:28:00,
2013-04-13 10:33:00,63.8,48.3,29.88,East,93,3.0,3.0,57,0.00,,---,0.00,VWS V14.01,2013-04-13 17:33:00,
2013-04-13 10:38:00,64.0,48.0,29.88,NNE,12,0.0,3.0,56,0.00,,---,0.00,VWS V14.01,2013-04-13 17:38:00,
2013-04-13 10:43:00,64.1,48.1,29.87,NE,53,0.0,3.0,56,0.00,,---,0.00,VWS V14.01,2013-04-13 17:43:00,
2013-04-13 10:48:00,64.3,48.3,29.87,NE,40,1.0,4.0,56,0.00,,---,0.00,VWS V14.01,2013-04-13 17:48:00,
2013-04-13 10:53:00,64.7,49.1,29.87,NNW,333,0.0,2.0,57,0.00,,---,0.00,VWS V14.01,2013-04-13 17:53:00,
2013-04-13 10:58:00,65.4,48.8,29.87,ESE,108,0.0,2.0,55,0.00,,---,0.00,VWS V14.01,2013-04-13 17:58:00,
2013-04-13 11:03:00,66.2,48.1,29.87,ESE,114,0.0,3.0,52,0.00,,---,0.00,VWS V14.01,2013-04-13 18:03:00,
2013-04-13 11:08:00,67.0,48.8,29.87,ENE,76,0.0,3.0,52,0.00,,---,0.00,VWS V14.01,2013-04-13 18:08:00,
2013-04-13 11:13:00,67.9,49.1,29.87,North,349,0.0,1.0,51,0.00,,---,0.00,VWS V14.01,2013-04-13 18:13:00,
2013-04-13 11:18:00,67.9,48.1,29.87,NNW,328,0.0,5.0,49,0.00,,---,0.00,VWS V14.01,2013-04-13 18:18:00,
2013-04-13 11:24:00,67.3,48.6,29.86,NW,317,0.0,1.0,51,0.00,,---,0.00,VWS V14.01,2013-04-13 18:24:00,
2013-04-13 11:27:00,67.4,48.1,29.86,ESE,119,1.0,2.0,50,0.00,,---,0.00,VWS V14.01,2013-04-13 18:27:00,
2013-04-13 11:32:00,68.3,49.5,29.86,SE,145,2.0,2.0,51,0.00,,---,0.00,VWS V14.01,2013-04-13 18:32:00,
2013-04-13 11:37:00,68.8,49.4,29.86,North,11,1.0,5.0,50,0.00,,---,0.00,VWS V14.01,2013-04-13 18:37:00,
2013-04-13 11:42:00,68.5,48.6,29.85,NNW,338,0.0,0.0,49,0.00,,---,0.00,VWS V14.01,2013-04-13 18:42:00,
2013-04-13 11:47:00,68.1,48.8,29.85,East,98,0.0,2.0,50,0.00,,---,0.00,VWS V14.01,2013-04-13 18:47:00,
2013-04-13 11:52:00,68.3,48.4,29.86,NE,34,0.0,3.0,49,0.00,,---,0.00,VWS V14.01,2013-04-13 18:52:00,
2013-04-13 11:57:00,68.4,48.5,29.85,West,275,0.0,3.0,49,0.00,,---,0.00,VWS V14.01,2013-04-13 18:57:00,
2013-04-13 12:02:00,68.5,48.6,29.85,NE,50,0.0,0.0,49,0.00,,---,0.00,VWS V14.01,2013-04-13 19:02:00,
2013-04-13 12:07:00,68.6,48.7,29.86,North,9,0.0,6.0,49,0.00,,---,0.00,VWS V14.01,2013-04-13 19:07:00,
2013-04-13 12:12:00,69.0,49.1,29.85,NNW,348,2.0,6.0,49,0.00,,---,0.00,VWS V14.01,2013-04-13 19:12:00,
2013-04-13 12:17:00,69.4,49.4,29.86,WSW,252,0.0,6.0,49,0.00,,---,0.00,VWS V14.01,2013-04-13 19:17:00,
2013-04-13 12:22:00,69.6,50.2,29.85,SE,138,0.0,1.0,50,0.00,,---,0.00,VWS V14.01,2013-04-13 19:22:00,
2013-04-13 12:27:00,69.3,50.4,29.85,WNW,289,0.0,6.0,51,0.00,,---,0.00,VWS V14.01,2013-04-13 19:27:00,
2013-04-13 12:32:00,69.1,50.2,29.84,WNW,300,0.0,3.0,51,0.00,,---,0.00,VWS V14.01,2013-04-13 19:32:00,
2013-04-13 12:37:00,69.3,50.4,29.84,SE,135,2.0,3.0,51,0.00,,---,0.00,VWS V14.01,2013-04-13 19:37:00,
2013-04-13 12:42:00,69.2,50.3,29.84,WNW,296,1.0,3.0,51,0.00,,---,0.00,VWS V14.01,2013-04-13 19:42:00,
2013-04-13 12:47:00,69.0,50.1,29.84,WNW,299,0.0,6.0,51,0.00,,---,0.00,VWS V14.01,2013-04-13 19:47:00,
2013-04-13 12:52:00,69.1,49.2,29.84,West,275,4.0,4.0,49,0.00,,---,0.00,VWS V14.01,2013-04-13 19:52:00,
2013-04-13 12:57:00,68.7,49.9,29.84,NNW,335,5.0,5.0,51,0.00,,---,0.00,VWS V14.01,2013-04-13 19:57:00,
2013-04-13 13:02:00,68.4,49.1,29.84,WNW,302,2.0,4.0,50,0.00,,---,0.00,VWS V14.01,2013-04-13 20:02:00,
2013-04-13 13:07:00,68.5,50.2,29.84,SSE,153,0.0,4.0,52,0.00,,---,0.00,VWS V14.01,2013-04-13 20:07:00,
2013-04-13 13:12:00,69.0,50.1,29.84,SE,141,7.0,7.0,51,0.00,,---,0.00,VWS V14.01,2013-04-13 20:12:00,
2013-04-13 13:17:00,69.4,50.0,29.83,West,279,0.0,10.0,50,0.00,,---,0.00,VWS V14.01,2013-04-13 20:17:00,
2013-04-13 13:22:00,69.0,50.1,29.83,ESE,107,1.0,3.0,51,0.00,,---,0.00,VWS V14.01,2013-04-13 20:22:00,
2013-04-13 13:27:00,69.4,50.0,29.83,South,173,0.0,4.0,50,0.00,,---,0.00,VWS V14.01,2013-04-13 20:27:00,
2013-04-13 13:32:00,69.5,50.1,29.83,SSW,201,1.0,2.0,50,0.00,,---,0.00,VWS V14.01,2013-04-13 20:32:00,
2013-04-13 13:37:00,69.4,49.4,29.83,West,277,0.0,4.0,49,0.00,,---,0.00,VWS V14.01,2013-04-13 20:37:00,
2013-04-13 13:42:00,69.3,49.9,29.83,NNW,340,8.0,8.0,50,0.00,,---,0.00,VWS V14.01,2013-04-13 20:42:00,
2013-04-13 13:47:00,69.5,49.0,29.83,West,276,0.0,9.0,48,0.00,,---,0.00,VWS V14.01,2013-04-13 20:47:00,
2013-04-13 13:52:00,69.9,50.4,29.83,SSE,168,6.0,6.0,50,0.00,,---,0.00,VWS V14.01,2013-04-13 20:52:00,
2013-04-13 13:57:00,69.7,50.2,29.82,SSE,159,3.0,6.0,50,0.00,,---,0.00,VWS V14.01,2013-04-13 20:57:00,
2013-04-13 14:02:00,69.7,50.2,29.82,ESE,123,5.0,10.0,50,0.00,,---,0.00,VWS V14.01,2013-04-13 21:02:00,
2013-04-13 14:07:00,69.7,50.2,29.82,ESE,117,0.0,10.0,50,0.00,,---,0.00,VWS V14.01,2013-04-13 21:07:00,
2013-04-13 14:12:00,69.9,50.4,29.82,SE,124,0.0,2.0,50,0.00,,---,0.00,VWS V14.01,2013-04-13 21:12:00,
2013-04-13 14:17:00,70.1,50.6,29.82,ESE,119,4.0,6.0,50,0.00,,---,0.00,VWS V14.01,2013-04-13 21:17:00,
2013-04-13 14:22:00,70.2,50.7,29.82,SE,136,3.0,7.0,50,0.00,,---,0.00,VWS V14.01,2013-04-13 21:22:00,
2013-04-13 14:27:00,69.9,50.4,29.82,South,171,2.0,7.0,50,0.00,,---,0.00,VWS V14.01,2013-04-13 21:27:00,
2013-04-13 14:32:00,69.5,51.1,29.82,West,259,0.0,2.0,52,0.00,,---,0.00,VWS V14.01,2013-04-13 21:32:00,
2013-04-13 14:37:00,69.7,50.8,29.81,ESE,109,2.0,8.0,51,0.00,,---,0.00,VWS V14.01,2013-04-13 21:37:00,
2013-04-13 14:42:00,69.4,49.4,29.81,NW,308,2.0,10.0,49,0.00,,---,0.00,VWS V14.01,2013-04-13 21:42:00,
2013-04-13 14:47:00,68.4,49.6,29.82,NNE,26,0.0,10.0,51,0.00,,---,0.00,VWS V14.01,2013-04-13 21:47:00,
2013-04-13 14:52:00,68.2,49.9,29.81,SSW,195,0.0,3.0,52,0.00,,---,0.00,VWS V14.01,2013-04-13 21:52:00,
2013-04-13 14:57:00,68.6,49.8,29.82,WNW,286,0.0,8.0,51,0.00,,---,0.00,VWS V14.01,2013-04-13 21:57:00,
2013-04-13 15:02:00,68.7,49.9,29.82,West,261,2.0,2.0,51,0.00,,---,0.00,VWS V14.01,2013-04-13 22:02:00,
2013-04-13 15:07:00,68.7,49.9,29.82,West,281,2.0,9.0,51,0.00,,---,0.00,VWS V14.01,2013-04-13 22:07:00,
2013-04-13 15:12:00,69.2,50.3,29.82,SE,136,7.0,7.0,51,0.00,,---,0.00,VWS V14.01,2013-04-13 22:12:00,
2013-04-13 15:17:00,69.5,49.5,29.81,WSW,246,2.0,7.0,49,0.00,,---,0.00,VWS V14.01,2013-04-13 22:17:00,
2013-04-13 15:22:00,69.4,49.4,29.81,NNW,328,2.0,6.0,49,0.00,,---,0.00,VWS V14.01,2013-04-13 22:22:00,
2013-04-13 15:27:00,69.4,50.0,29.81,East,95,8.0,8.0,50,0.00,,---,0.00,VWS V14.01,2013-04-13 22:27:00,
2013-04-13 15:32:00,69.4,49.4,29.81,SE,128,0.0,2.0,49,0.00,,---,0.00,VWS V14.01,2013-04-13 22:32:00,
2013-04-13 15:37:00,69.1,49.7,29.81,WNW,285,6.0,7.0,50,0.00,,---,0.00,VWS V14.01,2013-04-13 22:37:00,
2013-04-13 15:42:00,68.8,50.0,29.81,NNW,342,2.0,2.0,51,0.00,,---,0.00,VWS V14.01,2013-04-13 22:42:00,
2013-04-13 15:47:00,68.9,49.5,29.81,West,275,3.0,7.0,50,0.00,,---,0.00,VWS V14.01,2013-04-13 22:47:00,
2013-04-13 15:52:00,68.8,49.4,29.80,NNE,29,0.0,3.0,50,0.00,,---,0.00,VWS V14.01,2013-04-13 22:52:00,
2013-04-13 15:57:00,68.5,48.6,29.80,East,82,5.0,13.0,49,0.00,,---,0.00,VWS V14.01,2013-04-13 22:57:00,
2013-04-13 16:02:00,67.9,48.6,29.79,WNW,293,2.0,4.0,50,0.00,,---,0.00,VWS V14.01,2013-04-13 23:02:00,
2013-04-13 16:07:00,67.7,48.9,29.80,SW,223,4.0,9.0,51,0.00,,---,0.00,VWS V14.01,2013-04-13 23:07:00,
2013-04-13 16:12:00,67.5,48.8,29.80,NW,315,10.0,10.0,51,0.00,,---,0.00,VWS V14.01,2013-04-13 23:12:00,
2013-04-13 16:17:00,67.4,48.7,29.79,ESE,123,2.0,10.0,51,0.00,,---,0.00,VWS V14.01,2013-04-13 23:17:00,
2013-04-13 16:22:00,67.2,48.5,29.79,NNE,22,1.0,4.0,51,0.00,,---,0.00,VWS V14.01,2013-04-13 23:22:00,
2013-04-13 16:27:00,67.1,48.4,29.79,ESE,108,6.0,11.0,51,0.00,,---,0.00,VWS V14.01,2013-04-13 23:27:00,
2013-04-13 16:32:00,66.7,48.0,29.80,WNW,302,3.0,7.0,51,0.00,,---,0.00,VWS V14.01,2013-04-13 23:32:00,
2013-04-13 16:37:00,66.5,48.3,29.80,SE,132,5.0,10.0,52,0.00,,---,0.00,VWS V14.01,2013-04-13 23:37:00,
2013-04-13 16:42:00,66.2,48.1,29.80,ESE,118,3.0,9.0,52,0.00,,---,0.00,VWS V14.01,2013-04-13 23:42:00,
2013-04-13 16:47:00,65.7,48.1,29.80,SE,146,5.0,12.0,53,0.00,,---,0.00,VWS V14.01,2013-04-13 23:47:00,
2013-04-13 16:52:00,64.8,47.8,29.80,SSE,149,7.0,14.0,54,0.00,,---,0.00,VWS V14.01,2013-04-13 23:52:00,
2013-04-13 16:57:00,64.0,47.5,29.80,North,355,0.0,14.0,55,0.00,,---,0.00,VWS V14.01,2013-04-13 23:57:00,
2013-04-13 17:02:00,63.9,47.9,29.80,SE,140,1.0,2.0,56,0.00,,---,0.00,VWS V14.01,2013-04-14 00:02:00,
2013-04-13 17:07:00,63.8,47.8,29.80,East,89,5.0,6.0,56,0.00,,---,0.00,VWS V14.01,2013-04-14 00:07:00,
2013-04-13 17:12:00,63.5,47.5,29.80,ESE,123,4.0,9.0,56,0.00,,---,0.00,VWS V14.01,2013-04-14 00:12:00,
2013-04-13 17:17:00,63.3,47.3,29.80,ESE,117,1.0,9.0,56,0.00,,---,0.00,VWS V14.01,2013-04-14 00:17:00,
2013-04-13 17:22:00,63.1,47.2,29.80,SW,215,0.0,1.0,56,0.00,,---,0.00,VWS V14.01,2013-04-14 00:22:00,
2013-04-13 17:27:00,62.8,46.9,29.80,ESE,102,4.0,10.0,56,0.00,,---,0.00,VWS V14.01,2013-04-14 00:27:00,
2013-04-13 17:32:00,62.6,47.2,29.80,SE,134,1.0,4.0,57,0.00,,---,0.00,VWS V14.01,2013-04-14 00:32:00,
2013-04-13 17:37:00,62.2,46.3,29.81,NE,36,1.0,10.0,56,0.00,,---,0.00,VWS V14.01,2013-04-14 00:37:00,
2013-04-13 17:42:00,62.2,46.8,29.81,ESE,113,0.0,7.0,57,0.00,,---,0.00,VWS V14.01,2013-04-14 00:42:00,
2013-04-13 17:47:00,62.2,46.3,29.81,NW,316,2.0,7.0,56,0.00,,---,0.00,VWS V14.01,2013-04-14 00:47:00,
2013-04-13 17:52:00,62.1,46.2,29.81,East,98,2.0,6.0,56,0.00,,---,0.00,VWS V14.01,2013-04-14 00:52:00,
2013-04-13 17:57:00,61.9,46.0,29.81,ENE,69,0.0,6.0,56,0.00,,---,0.00,VWS V14.01,2013-04-14 00:57:00,
2013-04-13 18:02:00,61.8,46.4,29.82,NW,321,1.0,1.0,57,0.00,,---,0.00,VWS V14.01,2013-04-14 01:02:00,
2013-04-13 18:07:00,61.6,46.2,29.81,North,350,3.0,4.0,57,0.00,,---,0.00,VWS V14.01,2013-04-14 01:07:00,
2013-04-13 18:12:00,61.2,45.9,29.81,ESE,110,3.0,4.0,57,0.00,,---,0.00,VWS V14.01,2013-04-14 01:12:00,
2013-04-13 18:17:00,60.8,45.5,29.81,SE,146,7.0,7.0,57,0.00,,---,0.00,VWS V14.01,2013-04-14 01:17:00,
2013-04-13 18:22:00,60.4,45.6,29.82,ESE,113,4.0,4.0,58,0.00,,---,0.00,VWS V14.01,2013-04-14 01:22:00,
2013-04-13 18:27:00,60.1,45.7,29.82,SSE,151,0.0,7.0,59,0.00,,---,0.00,VWS V14.01,2013-04-14 01:27:00,
2013-04-13 18:32:00,59.9,45.5,29.82,SE,129,0.0,0.0,59,0.00,,---,0.00,VWS V14.01,2013-04-14 01:32:00,
2013-04-13 18:37:00,59.9,46.0,29.81,SE,129,0.0,0.0,60,0.00,,---,0.00,VWS V14.01,2013-04-14 01:37:00,
2013-04-13 18:42:00,59.8,45.5,29.82,SE,129,0.0,0.0,59,0.00,,---,0.00,VWS V14.01,2013-04-14 01:42:00,
2013-04-13 18:47:00,59.7,45.4,29.82,ESE,102,0.0,1.0,59,0.00,,---,0.00,VWS V14.01,2013-04-14 01:47:00,
2013-04-13 18:52:00,59.6,45.7,29.83,ESE,104,2.0,3.0,60,0.00,,---,0.00,VWS V14.01,2013-04-14 01:52:00,
2013-04-13 18:57:00,59.0,45.2,29.83,SE,125,6.0,6.0,60,0.00,,---,0.00,VWS V14.01,2013-04-14 01:57:00,
2013-04-13 19:02:00,58.6,45.2,29.83,SE,128,5.0,5.0,61,0.00,,---,0.00,VWS V14.01,2013-04-14 02:02:00,
2013-04-13 19:08:00,58.0,45.1,29.83,East,90,1.0,9.0,62,0.00,,---,0.00,VWS V14.01,2013-04-14 02:08:00,
2013-04-13 19:13:00,57.6,45.1,29.83,SSE,147,4.0,7.0,63,0.00,,---,0.00,VWS V14.01,2013-04-14 02:13:00,
2013-04-13 19:18:00,57.2,45.2,29.83,SE,132,8.0,9.0,64,0.00,,---,0.00,VWS V14.01,2013-04-14 02:18:00,
2013-04-13 19:23:00,56.9,44.9,29.83,ESE,111,1.0,5.0,64,0.00,,---,0.00,VWS V14.01,2013-04-14 02:23:00,
2013-04-13 19:28:00,56.6,44.6,29.83,SSE,153,1.0,6.0,64,0.00,,---,0.00,VWS V14.01,2013-04-14 02:28:00,
2013-04-13 19:33:00,56.4,44.4,29.83,SSE,159,0.0,4.0,64,0.00,,---,0.00,VWS V14.01,2013-04-14 02:33:00,
2013-04-13 19:38:00,56.2,44.6,29.83,ESE,103,0.0,7.0,65,0.00,,---,0.00,VWS V14.01,2013-04-14 02:38:00,
2013-04-13 19:43:00,55.9,44.3,29.83,SE,131,3.0,4.0,65,0.00,,---,0.00,VWS V14.01,2013-04-14 02:43:00,
2013-04-13 19:48:00,55.6,44.4,29.83,SSE,147,0.0,7.0,66,0.00,,---,0.00,VWS V14.01,2013-04-14 02:48:00,
2013-04-13 19:53:00,55.4,44.2,29.83,ESE,118,0.0,1.0,66,0.00,,---,0.00,VWS V14.01,2013-04-14 02:53:00,
2013-04-13 19:58:00,55.3,44.5,29.83,ESE,116,6.0,10.0,67,0.00,,---,0.00,VWS V14.01,2013-04-14 02:58:00,
2013-04-13 20:03:00,55.0,44.3,29.82,SE,124,1.0,2.0,67,0.00,,---,0.00,VWS V14.01,2013-04-14 03:03:00,
2013-04-13 20:08:00,54.8,44.1,29.83,ESE,117,1.0,3.0,67,0.00,,---,0.00,VWS V14.01,2013-04-14 03:08:00,
2013-04-13 20:13:00,54.7,44.4,29.83,ESE,107,2.0,3.0,68,0.00,,---,0.00,VWS V14.01,2013-04-14 03:13:00,
2013-04-13 20:18:00,54.5,44.2,29.83,ESE,103,0.0,4.0,68,0.00,,---,0.00,VWS V14.01,2013-04-14 03:18:00,
2013-04-13 20:23:00,54.4,44.1,29.83,SE,142,5.0,5.0,68,0.00,,---,0.00,VWS V14.01,2013-04-14 03:23:00,
2013-04-13 20:28:00,54.2,44.3,29.83,South,188,5.0,10.0,69,0.00,,---,0.00,VWS V14.01,2013-04-14 03:28:00,
2013-04-13 20:33:00,54.0,44.5,29.83,South,170,3.0,4.0,70,0.00,,---,0.00,VWS V14.01,2013-04-14 03:33:00,
2013-04-13 20:38:00,53.8,44.3,29.84,SE,132,1.0,11.0,70,0.00,,---,0.00,VWS V14.01,2013-04-14 03:38:00,
2013-04-13 20:43:00,53.6,44.1,29.84,SSE,152,0.0,4.0,70,0.00,,---,0.00,VWS V14.01,2013-04-14 03:43:00,
2013-04-13 20:48:00,53.5,44.3,29.84,SSE,168,1.0,7.0,71,0.00,,---,0.00,VWS V14.01,2013-04-14 03:48:00,
2013-04-13 20:53:00,53.4,43.9,29.84,ESE,119,1.0,5.0,70,0.00,,---,0.00,VWS V14.01,2013-04-14 03:53:00,
2013-04-13 20:58:00,53.4,43.9,29.84,ESE,119,0.0,5.0,70,0.00,,---,0.00,VWS V14.01,2013-04-14 03:58:00,
2013-04-13 21:00:00,53.4,43.9,29.85,ESE,119,0.0,5.0,70,0.00,,---,0.00,VWS V14.01,2013-04-14 04:00:00,
2013-04-13 21:05:00,53.3,43.8,29.85,ESE,119,0.0,1.0,70,0.00,,---,0.00,VWS V14.01,2013-04-14 04:05:00,
2013-04-13 21:10:00,53.3,44.2,29.86,ESE,119,0.0,1.0,71,0.00,,---,0.00,VWS V14.01,2013-04-14 04:10:00,
2013-04-13 21:15:00,53.0,44.2,29.86,ESE,119,0.0,0.0,72,0.00,,---,0.00,VWS V14.01,2013-04-14 04:15:00,
2013-04-13 21:20:00,52.8,44.0,29.86,ESE,119,0.0,0.0,72,0.00,,---,0.00,VWS V14.01,2013-04-14 04:20:00,
2013-04-13 21:25:00,52.6,44.2,29.86,ESE,119,0.0,0.0,73,0.00,,---,0.00,VWS V14.01,2013-04-14 04:25:00,
2013-04-13 21:30:00,52.3,43.9,29.86,ESE,116,1.0,4.0,73,0.00,,---,0.00,VWS V14.01,2013-04-14 04:30:00,
2013-04-13 21:35:00,52.2,43.8,29.86,ESE,117,0.0,5.0,73,0.00,,---,0.00,VWS V14.01,2013-04-14 04:35:00,
2013-04-13 21:40:00,52.2,43.8,29.86,ESE,115,0.0,5.0,73,0.00,,---,0.00,VWS V14.01,2013-04-14 04:40:00,
2013-04-13 21:45:00,52.2,43.8,29.87,ESE,114,0.0,0.0,73,0.00,,---,0.00,VWS V14.01,2013-04-14 04:45:00,
2013-04-13 21:50:00,52.1,44.1,29.87,ESE,115,0.0,0.0,74,0.00,,---,0.00,VWS V14.01,2013-04-14 04:50:00,
2013-04-13 21:55:00,51.8,43.8,29.87,ESE,115,0.0,0.0,74,0.00,,---,0.00,VWS V14.01,2013-04-14 04:55:00,
2013-04-13 22:00:00,51.6,44.0,29.87,ESE,115,0.0,0.0,75,0.00,,---,0.00,VWS V14.01,2013-04-14 05:00:00,
2013-04-13 22:05:00,51.4,44.1,29.86,ESE,115,0.0,0.0,76,0.00,,---,0.00,VWS V14.01,2013-04-14 05:05:00,
2013-04-13 22:10:00,51.2,43.9,29.86,ESE,115,0.0,0.0,76,0.00,,---,0.00,VWS V14.01,2013-04-14 05:10:00,
2013-04-13 22:15:00,51.0,44.0,29.87,ESE,115,0.0,0.0,77,0.00,,---,0.00,VWS V14.01,2013-04-14 05:15:00,
2013-04-13 22:20:00,50.9,44.0,29.87,ESE,115,0.0,0.0,77,0.00,,---,0.00,VWS V14.01,2013-04-14 05:20:00,
2013-04-13 22:25:00,50.7,43.8,29.87,ESE,115,0.0,0.0,77,0.00,,---,0.00,VWS V14.01,2013-04-14 05:25:00,
2013-04-13 22:30:00,50.5,43.9,29.88,ESE,115,0.0,0.0,78,0.00,,---,0.00,VWS V14.01,2013-04-14 05:30:00,
2013-04-13 22:35:00,50.2,43.6,29.87,ESE,115,0.0,0.0,78,0.00,,---,0.00,VWS V14.01,2013-04-14 05:35:00,
2013-04-13 22:40:00,50.0,43.8,29.88,ESE,115,0.0,0.0,79,0.00,,---,0.00,VWS V14.01,2013-04-14 05:40:00,
2013-04-13 22:45:00,49.8,43.6,29.88,ESE,115,0.0,0.0,79,0.00,,---,0.00,VWS V14.01,2013-04-14 05:45:00,
2013-04-13 22:50:00,49.5,43.6,29.88,ESE,115,0.0,0.0,80,0.00,,---,0.00,VWS V14.01,2013-04-14 05:50:00,
2013-04-13 22:55:00,49.3,43.4,29.88,ESE,115,0.0,0.0,80,0.00,,---,0.00,VWS V14.01,2013-04-14 05:55:00,
2013-04-13 23:00:00,49.2,43.6,29.88,ESE,115,0.0,0.0,81,0.00,,---,0.00,VWS V14.01,2013-04-14 06:00:00,
2013-04-13 23:05:00,49.0,43.4,29.87,ESE,115,0.0,0.0,81,0.00,,---,0.00,VWS V14.01,2013-04-14 06:05:00,
2013-04-13 23:10:00,48.8,43.2,29.87,ESE,115,0.0,0.0,81,0.00,,---,0.00,VWS V14.01,2013-04-14 06:10:00,
2013-04-13 23:15:00,48.7,43.5,29.87,ESE,115,0.0,0.0,82,0.00,,---,0.00,VWS V14.01,2013-04-14 06:15:00,
2013-04-13 23:20:00,48.5,43.3,29.87,ESE,115,0.0,0.0,82,0.00,,---,0.00,VWS V14.01,2013-04-14 06:20:00,
2013-04-13 23:25:00,48.3,43.1,29.88,ESE,115,0.0,0.0,82,0.00,,---,0.00,VWS V14.01,2013-04-14 06:25:00,
2013-04-13 23:30:00,48.1,43.2,29.88,ESE,115,0.0,0.0,83,0.00,,---,0.00,VWS V14.01,2013-04-14 06:30:00,
2013-04-13 23:35:00,47.9,43.0,29.88,ESE,115,0.0,0.0,83,0.00,,---,0.00,VWS V14.01,2013-04-14 06:35:00,
2013-04-13 23:40:00,47.6,43.0,29.89,ESE,115,0.0,0.0,84,0.00,,---,0.00,VWS V14.01,2013-04-14 06:40:00,
2013-04-13 23:45:00,47.4,42.8,29.89,ESE,115,0.0,0.0,84,0.00,,---,0.00,VWS V14.01,2013-04-14 06:45:00,
2013-04-13 23:50:00,47.4,42.8,29.88,ESE,115,0.0,0.0,84,0.00,,---,0.00,VWS V14.01,2013-04-14 06:50:00,
2013-04-13 23:55:00,47.2,42.6,29.89,ESE,115,0.0,0.0,84,0.00,,---,0.00,VWS V14.01,2013-04-14 06:55:00,